ARIANE 2 DEB, 27038

Orbit data source: Space-Track

ARIANE 2 DEB, 27038 is space debris in HEO originally from a launch on Fri, 27 Jan 1989 UTC launched from the French Guiana (FRGUI). Debris objects in space refer to the collection of defunct objects orbiting the Earth. Examples of debris include non-operational satellites, rocket bodies, and fragments generated from explosions, collisions, or faulty payload assembly.

Loading next visibility...
Identifier
27038, 1989-006T
Orbit
HEO
Country
Flag of FRFR
Related business
Manufacturer
EADS/LV
Mission
Spacecraft
Bus & Motor
Unknown
Mass
Unknown
Launch date (UTC)
1989-01-27 (37 years ago)
Launch vehicle
Unknown
Launch site
French Guiana (FRGUI)
Object type
Payload
Rocket body
Debris
Shape & HBR
Unknown shape, 0.3 m
Radar Cross Section
Medium (>0.1 m² and <1 m²)

Expand to show TLE details & history
Last TLE update: 1 week ago

TLE from 1 week ago
0 ARIANE 2 DEB
1 27038U 89006T   26057.99034612  .00000153  00000-0  42651-3 0  9997
2 27038   8.8591 349.1819 7187998 243.5811  28.7107  2.31060851206459
Epoch: 2026-02-26T23:46Z
TLE epoch observation values (Epoch: 2026-02-26T23:46:05.904Z)
Latitude
0.00026°
Longitude
-164.08766°
Altitude
10,871.555 km
Speed
5.452 km/s
True Right ascension
23h 17m 04s
True Declination
0° 00' 01"
Sunlit
Object was in daylight at epoch
Visualization orbit readout
Latitude
Unknown
Longitude
Unknown
Altitude
Unknown
Speed
Unknown
Apparent Right ascension
Unknown
Apparent Declination
Unknown
Sunlit
N/A
Visualization observer readout
Local Sidereal Time
06:24:57
Azimuth
Unknown
Elevation
Unknown
Doppler factor
Unknown
Orbital elements
Apogee altitude
35,171.81 km
Perigee altitude
419.544 km
Semi-major axis
24,173.814 km
Eccentricity
0.7188
Inclination
8.8591°
RAAN
349.1819°
Arg. of periapsis
243.5811°
True anomaly
116.62789°
Mean anomaly
28.7107°
Eccentric anomaly
66.47067°
Mean motion
0.57746 °/min
Orbital period
623.41 mins
BSTAR
0.00042651
Loading maneuver chart data...
Computing Atmospheric mass density...
Loading historical data...
Loading historical data...
Loading historical data...
Loading historical data...
Loading historical data...
Loading historical data...
Loading historical data...

Documentation

Showing up to 5 results
|